Regional Weather Roundup
Issued by NWS

Home | Current Version | Previous Version | Graphics & Text | Print | Product List | Glossary On
Versions: 1 2 3 4 5 6 7 8 9 10 11 12 13 14 15 16 17 18 19 20 21 22 23 24 25 26 27 28 29 30 31 32 33 34 35 36 37 38 39 40 41 42 43 44 45 46 47 48 49 50
000
ASUS43 KOAX 150710
RWRNE

WEATHER ROUNDUP FOR NEBRASKA
NATIONAL WEATHER SERVICE OMAHA NE
200 AM CDT TUE APR 15 2014

NOTES: SATELLITE DATA IS BEING USED TO AUGMENT CLOUD COVER ABOVE
       12000 FEET.
       "FAIR" INDICATES FEW OR NO CLOUDS BELOW 12,000 FEET WITH NO
       SIGNIFICANT WEATHER AND/OR OBSTRUCTIONS TO VISIBILITY.

  * THESE STATIONS DO NOT REPORT WEATHER SUCH AS RAIN...SNOW OR FOG.

NEZ001>004-019>022-054>056-150800-
NEBRASKA PANHANDLE

CITY           SKY/WX    TMP DP  RH WIND       PRES   REMARKS
SCOTTSBLUFF    CLEAR     24  20  84 E6        30.07F WCI  17
ALLIANCE       CLEAR     22  14  71 SW3       30.06F
CHADRON        CLEAR     26  20  77 SW3       30.03F
KIMBALL        CLEAR     27  19  71 SW10      30.07F WCI  17
SIDNEY         CLEAR     26  18  71 SW10      30.10F WCI  16
$$

NEZ057>060-069>072-079>082-150800-
SOUTHWEST NEBRASKA

CITY           SKY/WX    TMP DP  RH WIND       PRES   REMARKS
NORTH PLATTE   CLEAR     22  15  75 CALM      30.14F
IMPERIAL       CLEAR     26  20  77 W7        30.15F WCI  18
LEXINGTON      CLEAR     28  22  75 CALM      30.17S
MCCOOK         CLEAR     28  23  81 SW7       30.17F WCI  21
OGALLALA       CLEAR     22  19  88 W8        30.13S WCI  12
$$

NEZ005>010-023>029-035>040-094-150800-
NORTH CENTRAL NEBRASKA

CITY           SKY/WX    TMP DP  RH WIND       PRES   REMARKS
VALENTINE      CLEAR     22  14  71 CALM      30.11F
AINSWORTH      CLEAR     20  13  73 S6        30.11F WCI  13
BROKEN BOW     CLEAR     20  15  81 CALM      30.14F
O`NEILL        CLEAR     20  14  77 CALM      30.16F
ORD            PTCLDY    20  14  77 SW3       30.16F
THEDFORD       CLEAR     24  17  73 S3        30.12F
$$

NEZ041-046>049-061>064-073>077-083>087-150800-
SOUTH CENTRAL NEBRASKA

CITY           SKY/WX    TMP DP  RH WIND       PRES   REMARKS
GRAND ISLAND   CLEAR     29  23  78 E6        30.17F WCI  23
AURORA         CLEAR     28  27  97 CALM      30.18F
HASTINGS       CLEAR     29  21  72 NE5       30.16S WCI  24
HEBRON         CLEAR     27  25  94 CALM      30.19F
HOLDREGE       CLEAR     28  21  73 N5        30.16F WCI  23
YORK           CLEAR     28  28 100 CALM      30.19S
$$

NEZ011>018-030>034-042>045-150800-
NORTHEAST NEBRASKA

CITY           SKY/WX    TMP DP  RH WIND       PRES   REMARKS
NORFOLK        CLEAR     24  18  77 SW5       30.17F WCI  18
ALBION         PTCLDY    23  20  87 CALM      30.18S
BLAIR          CLEAR     29  18  64 NW3       30.17S
COLUMBUS *     CLEAR     27  19  74 CALM      30.19S
FREMONT        CLEAR     28  21  77 W3        30.19S
TEKAMAH        CLEAR     25  19  78 NW7       30.19S WCI  17
$$

NEZ050>053-065>068-078-088>093-150800-
SOUTHEAST NEBRASKA

CITY           SKY/WX    TMP DP  RH WIND       PRES   REMARKS
LINCOLN        CLEAR     24  20  84 CALM      30.21R
OMAHA EPPLEY   PTCLDY    28  23  81 N3        30.19S
BEATRICE       FOG       23  22  95 CALM      30.19S VSB 1/4
FALLS CITY     CLEAR     30  25  81 NW3       30.19R
NEBRASKA CITY  CLEAR     32  23  69 NW7       30.18S WCI  25
PLATTSMOUTH    MOCLDY    29  21  70 W6        30.18S WCI  23
$$

NEZ044-045-051>053-067-150800-
OMAHA AREA

CITY           SKY/WX    TMP DP  RH WIND       PRES   REMARKS
OMAHA EPPLEY   PTCLDY    28  23  81 N3        30.19S
BLAIR          CLEAR     29  18  64 NW3       30.17S
FREMONT        CLEAR     28  21  77 W3        30.19S
MILLARD        CLEAR     31  19  62 NW3       30.19S
OFFUTT AFB     CLEAR     25  21  83 NW7       30.18S WCI  17
PLATTSMOUTH    MOCLDY    29  21  70 W6        30.18S WCI  23
WAHOO          FAIR      29  22  76 NW6       30.19S WCI  23
$$



USA.gov is the U.S. government's official web portal to all federal, state and local government web resources and services.